Regional Weather Roundup
Issued by NWS

Home | Current Version | Previous Version | Graphics & Text | Print | Product List | Glossary On
Versions: 1 2 3 4 5 6 7 8 9 10 11 12 13 14 15 16 17 18 19 20 21 22 23 24 25 26 27 28 29 30 31 32 33 34 35 36 37 38 39 40 41 42 43 44 45 46 47 48 49 50
000
ASUS43 KDTX 231301
RWRMI
MICHIGAN HOURLY REGIONAL WEATHER ROUNDUP
NATIONAL WEATHER SERVICE DETROIT/PONTIAC MI
800 AM EST THU FEB 23 2017

NOTE: "FAIR" INDICATES FEW OR NO CLOUDS BELOW 12,000 FEET WITH NO
SIGNIFICANT WEATHER AND/OR OBSTRUCTION TO VISIBILITY.

MIZ047>049-052>055-059>063-066>070-074>076-081>083-231400-
SOUTHEAST LOWER MICHIGAN

CITY           SKY/WX    TMP DP  RH WIND       PRES   REMARKS
ADRIAN         CLEAR     51  50  96 W6        29.71R FOG
ALMA           CLEAR     48  45  87 SW9       29.67R
ANN ARBOR      CLOUDY    53  52  96 S8        29.68R FOG
BAD AXE        PTCLDY    54  49  85 SW9G17    29.60R
CARO           CLEAR     53  49  85 SW10      29.62R
DETROIT CITY   PTCLDY    56  53  90 SW12      29.67R
DETROIT        MOCLDY    55  53  93 SW13      29.69R FOG
FLINT          CLEAR     54  48  80 W9        29.66R
GROSSE ILE     CLEAR     55  52  89 W7        29.68R
HILLSDALE      MOCLDY    52  50  93 W7        29.71R FOG
HOWELL         CLEAR     53  48  83 W8        29.67R

CITY           SKY/WX    TMP DP  RH WIND       PRES   REMARKS
JACKSON        CLEAR     52  48  86 W8        29.69R
LAMBERTVILLE   CLEAR     57  53  85 SW8       29.70S
LANSING        CLEAR     52  45  77 W10       29.69R
LAPEER         FAIR      55  48  76 W7G17     29.64R
MASON          CLEAR     52  49  88 W6        29.69R
MONROE         CLEAR     55  53  94 W10       29.69R
MT. CLEMENS    MOCLDY    57  55  93 SW12      29.64R
PONTIAC        PTCLDY    55  49  80 W13       29.64R
PORT HOPE        N/A     55  50  83 SW8       29.56R
PORT HURON     MOCLDY    52  52 100 S6        29.64R FOG
TRI CITIES     CLEAR     50  47  89 W12       29.65R FOG
MIDLAND        FAIR      51  44  77 W9        29.63R
TROY           CLOUDY    56  52  85 SW7       29.68R
SAGINAW HB     CLEAR     52  45  76 SW13      29.64R
$$
MIZ043>046-050>051-056>058-064>065-071>073-077>080-231400-
SOUTHWEST LOWER MICHIGAN

CITY           SKY/WX    TMP DP  RH WIND       PRES   REMARKS
BATTLE CREEK   CLEAR     51  48  89 W10       29.71R
BENTON HARBOR  CLEAR     46  41  82 W7        29.73R
BIG RAPIDS     CLOUDY    41  38  89 NW9       29.66R
COLDWATER      PTCLDY    49  49 100 SW5       29.72R FOG
FREMONT        FOG       39  39 100 NW3       29.70R VSB 1
HOLLAND        CLEAR     44  40  85 NW6       29.72R
GRAND RAPIDS   CLEAR     46  41  82 W7        29.70R
IONIA          FAIR      48  43  80 W10G16    29.68R
KALAMAZOO      CLEAR     50  44  80 W5        29.72R
LUDINGTON      CLOUDY    37  36  94 N10G22    29.73R WCI  30
MARSHALL       CLEAR     50  49  98 W7        29.71R FOG
MOUNT PLEASANT CLEAR     47  43  84 W7        29.64R
MUSKEGON       FOG       40  39  97 NW6       29.72R VSB 1
SOUTH HAVEN    CLEAR     45  42  88 NW8       29.72R
$$
MIZ016>042-231400-
NORTHERN LOWER MICHIGAN

CITY           SKY/WX    TMP DP  RH WIND       PRES   REMARKS
ALPENA         CLOUDY    45  43  93 W10G21    29.57R
BEAVER ISLAND  CLOUDY    34  33  98 NW12G17   29.67R WCI  25
BELLAIRE       CLOUDY    37  36  96 NW5       29.69R WCI  33
CADILLAC       FOG       38  38  97 NW12G17   29.65R VSB 1   WCI  31
CHARLEVOIX     CLOUDY    36  36 100 W6        29.70R WCI  31
FRANKFORT      CLOUDY    37  35  93 NW10      29.73R WCI  29
GAYLORD        FOG       37  34  89 W7G18     29.63R VSB 1   WCI  32
GRAYLING       FOG       37  36  97 W12G18    29.65R VSB 1   WCI  29
HARBOR SPRINGS CLOUDY    35  35 100 NW7       29.64R WCI  29
HOUGHTON LAKE  CLOUDY    40  38  93 W7        29.63R
MANISTEE       CLOUDY    37  35  92 NW10      29.74R WCI  30
OSCODA         PTCLDY    51  46  84 W17G24    29.56R
PELLSTON       CLOUDY    37  34  89 NW13G21   29.63R WCI  29
ROGERS CITY    CLOUDY    40  38  95 W9        29.59R FOG     WCI  33
TRAVERSE CITY  CLOUDY    39  35  86 NW13      29.70R WCI  31
$$
MIZ007>008-015-231400-
EASTERN UPPER MICHIGAN

CITY           SKY/WX    TMP DP  RH WIND       PRES   REMARKS
KINROSS        LGT SNOW  35  34  96 NW17      29.61R FOG     WCI  25
MACKINAC ISLAN FLURRIES  35  35 100 NW12G17   29.61R WCI  27
NEWBERRY       CLOUDY    32  32 100 NW10G17   29.67R WCI  24
S. S. MARIE    LGT RAIN  37  35  92 N10       29.62R WCI  30
MUNISING         N/A     35  31  85 N16       29.74R WCI  25
$$
MIZ004>006-011>014-085-231400-
CENTRAL UPPER MICHIGAN

CITY           SKY/WX    TMP DP  RH WIND       PRES   REMARKS
MANISTIQUE     CLOUDY    33  32  97 NW17      29.69R WCI  22
ESCANABA       CLOUDY    35  30  82 N12G24    29.74R WCI  27
MENOMINEE      MOCLDY    35  29  78 N10G17    29.77R WCI  27
SAWYER-GWINN   CLOUDY    30  27  86 N17G23    29.75R WCI  18
$$
MIZ001>003-009>011-084-231400-
WESTERN UPPER MICHIGAN

CITY           SKY/WX    TMP DP  RH WIND       PRES   REMARKS
IRON MOUNTAIN  CLOUDY    32  26  78 N17       29.76R WCI  21
HOUGHTON       CLEAR     27  20  75 NW7       29.80R WCI  19
COPPER HARBOR    N/A     34  24  67 NE13      29.80R WCI  25
IRONWOOD       CLOUDY    30  29  96 CALM      29.87R
$$

ABBREVIATIONS USED IN REMARKS
   TC - TEMPERATURE IN CELSIUS
  WCI - WIND CHILL INDEX
   HX - HEAT INDEX
  VSB - VISIBILITY




USA.gov is the U.S. government's official web portal to all federal, state and local government web resources and services.